Simultaneous Nadir Overpasses (SNOs) Predictions

Prediction of SNOs between NOAA-20 and LANDSAT-8 Satellite Orbit:

Table of predicted SNOs for the next 14.0 days since TLE Epoch: 5/31/2019
Index Date (NOAA-20) Time (NOAA-20) Lat,Lon (NOAA-20) SZA (NOAA-20 ) Date (LANDSAT-8) Time (LANDSAT-8) Lat,Lon (LANDSAT-8) SZA (LANDSAT-8 ) Distance(km) Time Diff (sec)
1 06/01/2019 06:32:32 70.16, 78.08 48.07 06/01/2019 06:33:23 70.13, 78.09 48.03 3.29 51
2 06/01/2019 07:23:13 -70.01,-114.37 132.09 06/01/2019 07:22:53 -70.02,-114.43 132.08 2.39 20
3 06/01/2019 08:13:41 69.05, 54.33 46.92 06/01/2019 08:12:35 69.09, 51.95 47.02 94.59 66
4 06/03/2019 22:49:25 70.10,-166.05 47.67 06/03/2019 22:49:54 70.09,-166.08 47.66 1.27 29
5 06/03/2019 23:40:07 -70.00, 1.41 132.44 06/03/2019 23:39:24 -69.99, 1.40 132.45 1.46 43
6 06/06/2019 14:15:42 -70.57, 141.68 132.14 06/06/2019 14:16:53 -70.44, 142.66 132.30 38.84 71
7 06/06/2019 15:06:18 70.04, -50.19 47.31 06/06/2019 15:06:25 70.06, -50.26 47.33 2.93 7
8 06/06/2019 15:57:00 -69.94, 117.27 132.80 06/06/2019 15:55:55 -69.96, 117.23 132.78 2.10 65
9 06/09/2019 06:32:27 -70.14,-101.88 132.83 06/09/2019 06:33:28 -70.13,-101.92 132.85 1.90 61
10 06/09/2019 07:23:11 70.04, 65.59 47.06 06/09/2019 07:22:55 70.02, 65.57 47.04 2.56 16
11 06/09/2019 08:13:43 -69.41,-126.17 133.60 06/09/2019 08:12:33 -69.48,-127.55 133.48 54.36 70
12 06/11/2019 22:49:21 -70.14, 13.90 133.04 06/11/2019 22:49:58 -70.14, 13.98 133.04 3.05 37
13 06/11/2019 23:40:04 69.98,-178.56 46.81 06/11/2019 23:39:26 69.97,-178.62 46.80 2.51 38
14 06/14/2019 14:15:42 70.71, -38.55 47.42 06/14/2019 14:16:51 70.63, -37.05 47.29 55.96 69
15 06/14/2019 15:06:14 -70.08, 129.76 133.25 06/14/2019 15:06:29 -70.10, 129.79 133.23 2.59 15
16 06/14/2019 15:56:58 69.98, -62.78 46.65 06/14/2019 15:55:56 69.98, -62.72 46.66 2.14 62




NCC Satellite Simultaneous Nadir Overpasses (SNOs) Prediction Service
